GFSGL_850_spd_000.txt.gz
Wind_Speed
20 16 18 18 16 17 20 22 23 23 26 28 31 32 33 33 33 32 34 37 38 40 44 43 45 43 43 29 34 33 32 38 51 42 40 23 48 48 48 46 45 45 43
19 20 19 17 17 19 21 22 23 25 27 29 32 33 33 33 33 35 36 36 38 42 44 46 45 45 43 30 28 33 34 38 39 37 40 24 55 50 51 48 47 47 44
20 19 18 18 18 21 22 21 24 28 28 30 32 32 34 35 34 34 34 36 38 42 42 45 43 38 40 29 27 31 31 45 27 31 32 32 52 57 52 49 46 45 46
21 20 19 19 20 20 21 24 26 26 28 30 33 33 33 33 32 35 34 35 38 41 41 46 43 35 40 29 25 29 33 29 24 32 29 27 52 51 52 50 44 44 46
20 19 19 19 20 21 23 26 26 26 28 31 34 31 31 32 32 30 33 36 38 38 43 49 38 37 38 28 25 26 27 30 27 27 31 26 48 50 53 46 47 43 46
19 19 17 18 20 22 23 24 25 28 29 31 30 32 31 31 30 31 32 35 36 39 43 43 38 39 35 26 23 27 27 29 29 34 32 35 49 53 50 47 48 45 39
18 17 18 18 18 20 21 24 26 28 31 30 30 29 31 31 30 29 30 33 35 39 42 37 40 35 35 21 17 18 31 31 28 28 29 41 47 53 52 48 49 50 45
19 18 16 17 18 19 22 26 28 29 29 29 31 29 29 30 28 28 30 31 34 39 40 39 39 31 35 23 25 18 23 27 28 30 34 20 49 53 49 52 53 46 37
18 17 15 15 18 20 23 26 27 28 30 31 29 28 30 30 29 29 28 30 32 38 38 41 39 34 34 30 30 22 17 33 29 34 29 23 42 51 54 52 51 46 42
16 15 15 17 19 22 24 26 26 28 29 29 29 28 27 27 26 26 28 29 33 35 35 40 38 35 37 32 29 20 20 32 35 35 33 25 42 51 55 57 54 52 48
13 15 17 17 19 21 23 25 27 27 28 26 27 26 23 25 30 27 26 27 30 30 37 38 37 38 34 29 22 20 13 26 28 30 26 30 44 52 56 55 56 58 57
15 16 17 18 20 21 24 26 27 27 25 26 26 24 28 30 28 28 26 24 27 32 35 34 38 40 34 27 17 11 14 26 32 31 21 41 52 53 56 52 52 54 51
16 17 17 18 19 22 23 26 26 24 23 23 24 26 34 33 32 28 25 25 30 30 30 31 35 37 28 26 20 11 17 32 35 31 24 48 58 51 52 47 47 50 48
15 16 17 19 21 21 22 23 26 24 23 26 29 32 33 33 32 30 30 33 33 32 29 32 35 33 27 23 27 6 17 29 30 30 41 55 48 50 49 49 49 47 43
15 16 17 18 20 21 23 24 25 24 23 30 28 26 29 32 33 31 30 32 31 29 28 28 34 29 32 30 32 11 11 25 25 24 46 52 47 50 49 49 51 48 46
15 17 18 18 20 21 23 25 22 24 30 27 22 22 25 26 23 27 28 29 27 20 23 27 31 29 30 33 30 25 6 21 28 26 45 53 52 50 50 49 55 53 49
16 18 18 20 22 21 20 21 25 31 27 22 20 19 20 22 23 27 28 23 20 19 20 26 32 28 32 33 33 26 11 20 31 37 54 54 53 48 54 50 54 55 49
17 19 19 20 18 18 20 25 28 24 27 26 22 18 18 19 24 26 25 20 20 21 20 24 32 28 31 35 37 29 10 16 26 50 53 53 55 52 54 52 52 58 53
18 20 18 18 20 20 23 21 20 23 22 24 25 21 21 22 23 24 23 17 19 23 22 23 29 29 27 34 34 33 16 17 21 55 56 53 53 56 50 50 53 57 57
16 15 15 16 17 19 19 21 22 20 23 27 25 25 20 21 23 24 22 20 19 22 22 23 28 30 24 32 34 38 17 14 18 56 63 51 53 56 55 53 57 58 57
15 18 18 13 9 16 20 20 21 26 23 24 24 22 21 20 21 22 21 22 19 21 22 21 26 30 23 26 33 34 30 7 12 41 55 61 53 53 55 58 57 55 56
16 9 10 13 16 14 20 21 20 22 22 19 21 20 20 20 19 20 20 21 17 19 20 18 24 28 25 22 29 35 31 23 13 38 48 57 59 54 53 53 55 54 53
8 11 11 13 18 19 19 17 19 20 20 17 17 17 16 17 17 15 19 16 16 20 18 17 22 27 25 17 25 33 29 34 7 27 50 59 56 55 53 52 56 53 51
9 11 14 15 14 15 16 15 18 18 17 17 15 15 16 16 16 16 16 16 15 17 17 16 19 24 25 18 22 29 34 32 8 29 53 56 54 55 56 55 54 53 51
10 10 11 12 15 15 15 15 16 16 16 14 13 15 17 17 16 15 14 12 13 15 15 15 17 22 23 18 17 26 30 30 5 32 52 53 54 56 58 57 56 55 54
7 9 13 11 14 14 14 15 16 14 13 13 14 14 16 14 16 16 9 10 11 13 13 13 15 19 21 17 16 23 26 26 4 19 50 52 52 56 57 58 57 57 55

GFSGL_850_spd_003.txt.gz
Wind_Speed
24 22 20 19 19 18 17 16 19 19 19 21 24 28 30 32 32 32 33 36 35 36 36 38 40 44 42 41 40 42 40 30 37 32 34 37 32 26 33 47 50 42 41
23 23 22 22 21 20 17 19 19 21 20 24 28 27 30 32 34 33 34 34 34 35 36 36 42 45 42 44 35 37 36 29 34 29 32 34 32 31 28 49 45 40 39
26 26 24 24 23 19 19 20 19 19 23 25 25 28 31 35 33 31 33 34 35 35 33 39 42 42 45 47 37 38 30 31 34 31 29 30 31 26 29 50 48 44 42
29 27 26 25 22 19 18 18 18 21 22 22 26 30 33 31 32 33 31 32 32 34 37 39 41 41 47 41 43 41 22 21 21 28 33 41 29 26 30 52 47 45 46
28 28 27 24 20 19 18 19 19 20 21 24 28 31 30 31 30 30 31 32 34 35 36 37 40 43 41 38 35 31 17 26 30 32 33 23 28 27 31 53 51 49 47
26 27 25 21 19 18 19 18 19 20 24 27 30 28 27 29 28 27 27 29 31 34 36 36 41 42 41 40 33 26 20 24 32 32 19 17 29 36 43 50 49 49 41
28 28 24 20 18 19 18 17 19 23 27 28 26 27 27 27 27 27 27 28 31 32 33 36 42 41 43 34 34 29 23 15 26 27 26 23 25 27 44 47 50 51 45
30 26 21 21 21 17 17 19 23 25 24 24 26 28 26 27 28 26 26 28 29 32 31 35 37 40 42 32 34 31 23 17 29 28 23 17 18 32 42 58 53 46 41
28 24 23 22 19 17 19 23 24 21 21 24 27 27 26 28 26 26 26 30 31 30 32 34 35 40 36 33 33 30 24 14 14 33 23 17 17 29 45 48 48 48 40
28 25 22 18 16 19 22 22 21 20 23 25 28 25 25 27 25 30 26 27 27 29 32 37 39 35 35 34 36 32 24 15 13 28 33 21 21 19 47 52 50 46 43
24 19 15 15 18 21 21 20 19 21 22 26 25 26 26 25 31 33 25 25 25 28 34 38 34 32 34 36 35 24 16 17 21 27 29 30 25 21 51 44 50 53 54
17 14 15 18 20 19 19 19 23 22 24 24 27 28 31 33 34 30 24 22 22 25 31 34 33 35 34 35 29 22 19 13 20 29 33 33 29 30 50 43 49 50 51
15 15 16 18 19 17 19 21 21 22 24 26 27 31 37 30 28 27 23 22 24 27 30 32 30 33 35 30 25 23 12 10 24 31 35 33 27 40 49 47 42 43 42
17 17 18 18 17 18 18 20 21 24 24 26 26 32 31 30 29 28 24 24 29 31 34 31 31 33 33 29 27 25 14 7 33 29 35 30 23 33 48 42 45 44 42
18 17 18 18 17 17 19 20 22 22 23 22 25 34 27 28 26 22 22 26 29 30 27 28 28 37 36 31 37 24 14 9 26 32 34 29 29 37 49 44 45 47 45
18 17 16 16 17 18 20 24 20 20 20 24 33 24 19 20 21 20 22 27 28 22 22 25 28 32 37 31 40 33 17 4 17 28 30 26 43 46 46 45 50 49 45
16 16 15 17 18 21 20 19 21 23 27 24 19 17 15 17 17 17 22 25 25 21 21 25 27 31 36 29 37 36 20 4 13 26 27 37 45 51 48 51 52 48 44
15 14 16 18 20 19 18 21 24 23 21 21 15 19 18 17 17 17 21 26 23 17 19 24 27 29 36 30 35 38 26 9 13 27 27 37 48 50 48 53 50 47 47
15 15 17 19 17 18 20 20 19 17 19 19 21 23 19 18 17 17 17 23 23 20 21 23 25 26 34 28 31 39 29 14 14 25 34 38 46 48 49 52 49 50 48
14 16 16 16 18 20 20 15 16 16 18 21 21 20 16 15 19 20 17 22 21 20 21 22 24 26 34 28 29 38 33 18 7 26 29 40 52 51 50 55 51 52 52
15 14 14 17 11 9 11 13 15 20 20 20 19 16 16 16 19 19 17 21 21 19 20 22 22 25 33 31 28 33 36 26 7 24 41 55 58 50 50 53 53 53 53
11 11 7 8 9 11 15 19 19 17 16 17 17 13 13 13 15 15 15 15 18 17 19 19 21 23 29 30 30 30 35 27 24 9 32 52 54 52 51 52 53 54 53
6 5 8 9 12 15 14 13 14 15 15 13 11 12 14 14 14 15 15 16 18 16 18 17 19 22 23 27 27 24 30 28 29 7 25 53 55 51 55 57 56 56 55
4 7 11 11 8 11 12 11 12 13 13 12 10 10 13 15 16 15 16 16 15 15 16 16 18 21 24 26 27 24 28 26 28 7 25 46 58 59 53 54 57 58 57
6 8 5 7 7 10 10 10 11 13 12 11 9 10 13 14 15 15 14 13 12 13 16 16 16 20 22 25 27 23 27 28 16 15 33 40 58 59 56 56 57 58 56
4 3 6 6 9 10 10 11 13 13 11 9 9 11 12 15 16 15 12 10 11 13 14 14 16 19 22 23 24 20 25 23 9 9 35 50 57 59 55 55 55 54 52

GFSGL_850_spd_006.txt.gz
Wind_Speed
30 28 27 25 20 18 15 15 16 16 17 17 18 19 23 24 24 26 31 30 30 30 30 30 33 33 33 38 41 46 41 39 38 44 41 28 28 26 41 25 22 45 45
30 28 27 23 21 19 18 17 17 17 18 18 18 21 22 23 26 29 29 27 30 31 30 29 32 33 36 38 39 41 44 38 42 41 31 30 26 25 32 22 19 40 46
31 28 26 24 24 21 20 19 17 18 18 17 18 20 22 25 28 31 28 29 27 28 28 30 32 34 37 39 37 44 45 44 46 31 29 24 18 19 25 16 13 38 47
31 29 27 27 25 22 20 19 18 17 16 16 17 20 25 29 32 28 28 27 29 29 29 29 31 34 36 37 39 44 44 40 33 25 24 25 16 18 24 19 21 41 46
32 31 29 27 25 22 21 19 18 16 16 17 19 24 28 29 27 27 26 27 28 30 30 31 31 33 34 34 36 40 40 41 26 13 19 21 24 27 29 19 23 40 45
33 31 29 28 25 23 21 19 17 17 17 19 22 26 26 25 24 24 24 27 28 29 31 32 32 33 37 34 38 37 34 33 22 20 25 29 23 23 23 17 20 42 41
33 31 30 27 26 24 20 18 18 18 18 21 25 22 22 25 22 22 23 25 26 28 30 33 32 33 35 41 37 38 35 29 16 15 26 24 15 14 18 22 25 47 34
34 32 29 28 26 21 20 19 19 19 20 23 21 21 23 25 21 24 21 23 30 32 31 29 32 35 37 38 38 38 36 28 17 9 21 23 17 13 17 27 48 44 39
34 32 30 28 24 22 21 20 18 19 21 20 19 21 25 24 22 25 23 30 33 28 27 26 28 35 37 32 36 41 38 22 14 6 25 21 19 19 15 33 46 47 44
35 31 30 27 23 21 21 18 17 19 18 17 20 23 24 25 24 27 29 29 27 27 28 28 31 30 30 29 33 38 38 25 24 11 23 23 17 12 19 33 50 48 45
31 31 28 24 21 20 17 17 18 17 17 19 20 22 27 24 27 34 24 21 23 26 28 29 31 31 27 32 32 31 28 29 22 12 15 24 23 17 24 38 44 49 51
31 27 24 21 19 15 16 17 16 16 18 19 21 25 26 24 28 26 22 21 18 23 26 28 32 28 30 31 33 28 27 22 13 13 18 27 28 23 23 43 37 45 44
27 24 21 17 14 15 16 16 16 17 18 19 22 25 25 25 32 23 20 16 18 23 26 31 26 28 27 32 29 29 24 20 12 19 23 30 33 24 23 45 33 40 40
23 19 16 15 15 15 16 17 17 18 19 20 23 24 24 29 28 20 17 19 22 26 32 28 25 27 26 32 30 31 27 21 19 16 28 32 31 24 27 45 44 43 43
17 15 15 14 15 16 17 17 17 18 20 21 21 21 27 31 22 18 19 23 22 28 27 24 27 29 27 33 34 31 34 22 18 14 28 29 28 28 36 49 45 42 43
16 16 14 14 15 15 16 17 17 20 17 17 20 26 22 20 20 18 18 19 22 25 23 22 25 28 28 31 39 33 37 27 17 16 26 30 30 29 40 49 39 46 43
15 14 14 14 14 15 16 18 19 16 17 22 19 17 15 18 18 18 18 20 20 25 22 20 23 26 26 30 38 31 39 31 17 10 25 31 33 43 45 49 41 47 44
14 13 13 13 14 16 17 16 15 19 21 19 15 14 17 20 18 16 15 17 20 24 20 19 21 23 27 29 36 31 39 31 16 3 30 35 33 35 44 45 49 45 46
14 14 13 14 16 17 15 14 14 16 15 16 19 20 20 17 15 14 15 15 17 23 22 17 21 24 28 32 35 30 36 33 22 4 14 32 35 38 45 48 47 47 48
13 13 13 14 14 13 14 14 12 13 13 17 19 19 17 14 15 16 17 14 15 20 19 17 21 22 24 29 32 30 33 34 28 13 8 29 34 46 50 52 49 47 49
11 12 12 12 12 9 6 7 10 15 19 20 18 15 15 13 16 15 17 14 15 17 18 19 22 21 21 26 28 30 30 33 31 27 1 29 32 48 52 49 48 50 49
9 10 9 7 7 6 7 12 16 17 16 17 16 12 9 11 13 15 15 15 16 17 17 17 20 20 20 25 28 29 30 30 32 31 5 30 30 44 50 51 51 50 49
9 7 5 6 7 10 11 11 11 12 13 15 14 12 11 12 14 13 15 16 17 17 14 18 17 18 19 22 29 28 30 33 34 29 10 18 34 41 51 53 54 52 51
6 4 4 7 9 6 9 10 11 11 12 14 13 11 10 12 14 15 15 16 17 15 14 16 18 17 19 21 27 26 26 29 31 23 10 20 36 50 54 57 53 53 52
5 4 4 3 4 6 9 9 9 10 13 13 12 11 10 12 13 14 15 16 16 14 15 17 17 17 18 21 25 25 23 29 24 15 9 18 34 50 59 55 53 52 50
4 3 2 1 4 6 8 8 10 11 12 12 12 10 10 11 13 14 15 13 13 13 14 17 17 16 18 21 23 21 22 26 19 11 12 18 33 50 55 58 53 52 49

GFSGL_850_spd_012.txt.gz
Wind_Speed
50 51 47 44 39 34 32 29 26 22 21 19 17 16 16 16 16 17 18 19 22 24 26 24 25 23 25 24 25 26 29 31 42 56 48 48 45 45 45 31 27 27 30
44 49 48 41 38 36 33 30 26 24 21 17 17 17 17 16 16 17 18 21 24 25 23 23 23 21 23 24 26 29 31 32 38 50 49 48 42 49 38 36 28 26 27
44 47 46 43 40 37 34 30 26 25 21 17 17 17 16 16 16 17 20 23 23 22 20 21 21 23 26 26 28 31 32 34 37 41 44 45 47 45 45 32 25 26 28
43 46 48 44 40 37 34 29 27 26 22 18 17 17 17 16 17 18 21 21 21 19 19 21 24 25 27 31 32 33 35 37 37 38 49 45 43 40 26 22 24 26 27
43 45 48 44 39 36 34 30 28 26 22 18 18 17 17 17 16 19 19 20 19 18 22 25 26 28 29 27 28 29 31 35 39 41 43 43 44 35 22 18 23 24 27
44 45 47 44 40 37 34 31 29 26 23 20 19 17 17 16 17 17 18 17 17 21 24 26 29 32 28 26 26 27 28 32 37 39 41 44 46 20 23 22 20 27 26
45 44 46 44 42 39 34 33 31 28 24 21 19 17 16 16 16 16 16 16 18 21 24 29 32 25 24 27 29 26 29 27 32 35 36 35 40 26 17 18 23 25 31
44 45 45 44 43 39 36 34 31 28 25 21 18 16 16 16 14 15 15 14 18 23 27 23 22 22 25 25 26 32 30 33 35 34 33 37 31 21 13 14 32 23 33
44 45 45 44 43 40 37 35 32 29 25 21 17 16 16 15 13 13 15 16 20 24 21 19 19 22 24 24 28 29 33 35 34 34 33 27 16 10 10 15 23 20 25
45 45 45 45 42 39 36 34 31 28 22 19 17 15 14 13 11 14 15 16 22 22 18 15 18 21 24 26 27 29 34 32 37 38 26 19 3 8 10 11 22 32 26
41 45 43 42 40 36 33 32 29 25 21 19 16 14 13 12 12 14 15 17 19 18 13 15 20 24 25 25 23 28 24 32 32 32 25 16 10 9 12 13 16 24 21
44 43 40 40 38 34 32 30 27 23 20 17 15 14 13 12 13 14 14 18 15 14 14 17 20 24 23 23 25 23 23 28 28 26 22 16 9 8 9 9 17 23 30
40 40 40 40 36 33 32 30 26 22 19 16 14 14 12 13 13 12 16 16 12 13 16 17 18 23 23 22 25 21 21 25 27 28 22 17 6 7 9 8 12 17 28
39 40 41 40 36 32 29 25 21 20 17 15 14 12 13 14 12 14 14 11 13 14 14 16 19 23 20 21 23 21 22 24 25 23 21 15 12 13 12 10 11 29 38
37 39 39 36 33 30 24 21 18 15 13 13 11 12 13 12 13 13 10 12 14 15 16 18 20 22 22 22 23 23 22 25 25 20 18 13 11 8 16 15 18 35 30
37 37 34 31 27 22 21 20 17 14 12 10 11 11 12 14 11 11 13 14 15 16 17 19 20 21 19 21 23 23 23 26 24 20 16 12 10 14 21 21 31 39 42
32 29 25 22 19 20 19 18 16 14 11 10 10 11 11 9 10 13 15 14 14 15 16 17 19 19 16 18 22 22 23 26 21 25 16 10 7 17 25 25 38 37 40
18 16 14 16 19 18 16 14 12 11 11 11 10 9 8 9 11 13 11 10 10 12 16 14 15 15 14 18 21 21 23 25 20 26 20 9 7 14 27 29 38 40 41
19 19 17 17 14 14 13 11 10 11 10 8 7 6 7 10 11 10 9 10 10 9 9 11 13 16 14 18 20 22 23 24 20 25 29 10 5 6 30 33 42 43 45
18 18 17 14 14 13 9 10 11 10 10 7 6 6 9 11 8 6 7 7 8 10 10 12 15 17 15 18 19 20 23 23 19 23 31 21 11 7 27 34 42 48 45
19 17 13 13 11 8 9 9 8 7 8 8 7 7 7 8 5 5 7 8 9 10 11 13 14 15 16 16 17 18 22 23 21 22 30 29 12 13 19 26 51 52 48
15 11 10 8 8 8 7 6 6 7 7 8 6 6 9 9 8 9 9 9 9 11 12 14 15 13 14 16 17 18 22 24 22 22 30 31 15 15 24 25 50 46 49
13 11 10 9 8 7 6 5 6 7 6 6 5 7 7 9 9 10 10 10 11 11 13 14 13 12 13 16 17 18 21 27 24 24 30 29 17 20 31 26 50 51 50
10 9 8 7 6 5 4 4 4 5 4 3 4 8 9 8 9 9 11 13 13 13 14 13 13 14 15 17 18 17 20 23 24 23 29 26 16 15 26 31 49 53 53
8 8 7 5 4 3 3 2 2 1 1 4 6 7 6 7 8 10 12 14 15 15 14 13 12 14 15 18 18 18 21 21 21 20 25 21 14 6 25 38 51 50 51
10 7 6 6 5 3 1 0 2 1 1 3 6 8 5 7 8 9 10 12 13 12 9 10 12 14 16 16 18 20 21 19 19 21 22 18 11 7 17 40 49 52 50

GFSGL_850_spd_015.txt.gz
Wind_Speed
41 45 52 58 55 49 44 40 34 31 30 29 26 24 23 21 19 18 17 17 18 20 21 24 26 24 24 24 24 26 28 31 40 49 37 37 36 35 37 39 40 38 36
34 41 47 52 53 50 46 40 35 33 31 29 26 24 23 21 19 18 17 17 19 21 23 24 23 21 23 24 26 28 30 32 36 47 40 42 40 44 37 44 41 37 35
32 36 42 49 52 51 46 41 37 35 32 30 27 25 23 20 19 19 18 18 20 22 22 22 21 21 25 26 27 31 32 34 35 42 48 44 42 42 44 42 39 38 39
29 36 39 45 50 50 45 42 39 36 33 31 28 23 22 20 20 19 18 18 21 21 22 20 21 23 25 27 30 30 29 31 34 37 40 44 45 42 44 45 47 35 27
25 33 38 40 46 48 46 43 40 37 34 30 27 23 22 20 20 18 18 19 20 20 20 21 23 23 26 26 28 26 27 32 34 37 41 43 47 45 37 43 31 22 22
25 29 34 40 43 49 48 45 41 37 34 31 28 24 21 20 18 18 18 19 18 19 21 21 23 27 30 25 23 25 27 28 32 34 40 45 44 46 38 38 23 20 23
29 28 33 40 44 49 48 45 43 39 35 33 29 24 21 19 18 18 17 16 18 20 19 21 25 23 21 22 25 19 25 27 28 31 41 40 46 47 43 37 27 25 23
32 33 34 39 45 50 49 47 44 40 37 34 29 23 20 19 18 16 15 16 18 18 19 21 21 20 19 20 23 27 29 30 31 32 35 40 45 41 37 34 23 16 16
36 37 37 40 45 51 52 50 46 42 40 34 29 24 20 19 17 15 15 17 18 18 19 18 15 15 17 17 24 27 29 31 29 32 38 41 30 31 11 8 15 19 18
38 39 37 38 44 51 52 50 46 40 36 33 28 23 19 18 16 15 15 16 18 18 18 16 11 13 18 22 22 24 27 28 35 37 38 28 26 4 3 6 12 18 14
36 35 37 38 45 49 51 48 43 41 36 32 27 23 20 17 15 14 14 16 16 18 18 14 13 15 19 21 19 21 25 27 31 31 32 27 22 3 2 5 8 11 12
29 33 37 37 43 47 50 47 42 40 36 32 27 23 19 16 15 14 14 16 15 17 16 14 16 16 19 22 20 22 23 20 24 28 29 26 20 9 4 2 5 13 15
23 31 34 34 41 46 49 46 44 40 36 31 27 21 18 16 15 14 14 15 17 16 15 15 16 17 20 21 20 21 22 18 23 26 27 25 17 8 2 2 2 8 15
23 30 34 37 42 43 45 43 42 38 33 27 24 20 17 16 15 13 13 15 13 14 14 15 15 17 19 21 19 19 19 17 22 24 22 21 12 4 1 2 1 11 16
29 31 36 33 39 43 41 39 35 30 25 24 19 16 16 15 13 12 12 11 12 13 13 16 17 17 20 20 19 22 18 18 21 24 20 16 10 4 1 3 10 14 23
21 30 36 39 41 42 40 34 25 20 19 16 15 13 13 12 11 10 10 10 11 12 12 15 15 15 18 19 19 22 21 18 21 21 20 15 8 2 3 4 7 26 32
24 30 35 40 41 38 35 32 29 22 17 14 13 12 12 11 9 9 9 12 12 13 13 13 14 13 15 16 18 20 21 19 21 16 20 15 8 4 9 11 17 27 29
26 34 38 36 33 31 28 23 19 14 15 16 14 12 11 10 9 9 10 10 9 10 11 11 9 10 13 15 16 19 20 19 19 16 20 16 9 5 10 18 22 29 33
20 27 29 26 22 19 16 15 15 16 15 13 14 12 10 9 10 11 10 10 10 9 8 8 8 10 14 13 15 17 19 19 17 16 17 20 12 7 11 17 21 34 41
17 12 14 15 16 16 17 18 19 14 13 15 14 12 10 9 10 11 10 9 9 8 8 9 9 10 12 13 15 16 19 20 18 17 16 20 17 7 11 16 30 39 44
22 19 15 17 20 21 19 15 12 12 13 13 12 11 9 8 9 10 9 8 8 9 8 10 11 11 9 12 14 14 18 20 19 18 17 21 21 10 10 23 32 41 41
20 18 17 19 17 14 13 12 12 12 12 11 10 9 9 10 12 12 10 10 8 8 9 11 13 12 11 12 13 15 18 20 20 20 18 19 23 14 11 17 34 35 37
16 17 16 13 12 13 13 10 9 10 9 7 7 7 8 10 13 13 11 12 10 10 10 12 13 13 12 13 14 16 17 18 22 23 22 21 24 16 10 15 36 39 43
14 13 12 12 11 10 11 10 8 7 7 6 5 6 6 8 10 12 12 10 11 11 12 14 13 12 13 14 15 17 16 17 20 22 23 24 25 17 12 24 26 41 46
10 10 12 11 10 9 7 6 7 7 6 4 2 3 5 6 8 10 10 11 11 11 13 12 11 11 11 14 16 16 17 18 19 21 22 23 22 14 9 25 25 43 46
13 13 11 11 10 9 8 8 8 7 6 4 2 1 2 5 6 7 8 9 8 8 7 7 8 9 12 14 15 16 18 18 20 17 18 21 17 11 8 20 30 40 50

GFSGL_850_spd_018.txt.gz
Wind_Speed
20 24 28 30 34 37 38 37 47 46 42 38 35 34 33 30 27 24 21 18 18 16 15 15 17 17 18 18 18 20 22 25 33 34 30 30 31 31 32 31 30 34 32
18 21 24 27 31 35 36 35 42 45 40 38 36 35 32 31 27 24 22 19 18 17 15 15 17 16 17 18 19 20 23 25 31 38 35 33 31 31 32 32 34 38 40
19 20 22 26 29 33 35 35 36 42 41 38 36 35 32 30 28 24 22 19 17 16 15 16 17 16 17 18 19 21 24 26 29 35 39 36 36 31 33 38 39 40 37
20 20 21 24 27 30 33 34 35 40 41 38 36 34 32 29 27 24 22 19 17 17 17 18 17 16 17 19 19 22 25 28 29 32 37 37 36 38 34 42 46 34 42
23 19 20 22 25 27 31 35 36 39 40 37 34 32 31 29 27 25 23 20 17 16 16 15 16 17 19 20 22 25 24 27 31 32 37 36 37 34 39 44 36 45 38
24 22 21 21 24 27 31 35 37 40 38 36 34 33 32 29 27 24 21 20 18 17 15 14 15 17 18 20 21 21 23 25 27 32 36 36 39 43 45 44 45 40 39
29 24 21 22 25 28 30 34 40 45 39 37 35 32 32 29 26 22 21 19 15 14 14 14 15 15 18 17 19 20 22 25 28 32 38 41 45 46 47 49 44 41 38
32 26 21 24 25 28 31 36 37 40 42 38 33 31 30 27 23 22 20 18 15 15 14 14 15 16 15 15 16 21 25 26 26 29 34 42 43 46 47 44 44 42 29
40 36 27 24 26 30 34 39 39 36 37 35 32 31 29 26 23 21 19 16 15 14 14 14 15 15 13 14 17 23 25 26 25 29 33 39 40 37 34 28 20 11 15
36 39 28 24 34 40 36 41 44 42 39 35 30 30 29 24 22 21 19 16 14 12 13 13 15 13 14 14 16 21 25 26 30 33 37 37 31 30 14 8 8 9 11
37 38 25 31 40 36 31 37 43 43 39 34 30 28 27 22 21 21 19 16 13 12 12 12 11 13 14 14 17 19 22 27 30 27 33 35 31 22 10 3 3 3 6
41 33 25 29 37 25 29 37 40 44 45 35 30 26 23 21 21 19 18 17 15 13 13 12 11 15 13 15 19 20 23 25 22 29 32 32 29 20 9 6 2 1 6
33 24 16 24 28 29 34 38 40 45 47 37 32 25 24 21 20 19 17 17 17 16 14 14 17 14 15 14 17 20 21 20 21 25 31 31 25 18 11 7 5 2 1
23 13 21 26 25 26 33 36 40 45 43 41 31 24 21 21 19 18 17 17 17 18 15 12 13 14 15 15 15 15 16 19 19 24 28 27 21 15 11 7 5 4 7
13 15 17 15 23 27 32 37 38 41 45 41 32 24 22 19 18 17 15 13 11 10 13 10 11 10 11 10 11 12 15 17 19 22 25 25 20 12 7 5 4 3 18
9 14 20 23 25 30 32 30 33 40 36 30 25 22 20 17 16 13 14 15 16 14 10 11 10 9 10 10 10 12 14 17 17 20 21 23 18 11 6 4 3 12 28
6 10 19 19 25 33 38 42 40 32 28 24 21 19 17 13 10 12 13 14 14 14 11 10 10 8 9 9 10 11 13 16 16 18 19 21 17 11 4 3 7 17 21
5 13 22 25 29 29 34 42 40 36 29 23 18 15 12 11 12 11 12 12 11 11 10 9 8 6 6 8 9 10 12 13 14 17 16 20 15 12 7 2 10 13 21
12 18 23 27 30 36 40 37 31 25 21 17 15 14 13 10 9 11 11 10 10 10 8 7 6 5 6 9 9 10 13 13 13 15 14 16 18 11 9 5 7 14 18
20 24 32 33 32 32 28 26 23 19 17 15 13 12 10 12 12 9 10 11 10 9 7 6 6 6 7 8 8 10 12 12 14 15 14 14 17 14 9 8 10 18 22
16 19 15 16 19 21 19 16 14 12 11 10 9 14 16 13 8 8 10 10 9 8 6 7 7 7 7 9 9 9 10 12 13 17 17 15 17 18 10 10 10 24 25
25 21 21 18 17 17 17 16 12 10 10 12 14 15 15 11 9 9 9 10 9 6 6 6 8 8 8 9 9 9 10 12 13 17 19 16 17 16 14 11 13 27 26
25 25 23 20 16 14 13 12 12 14 14 13 11 9 9 9 9 9 10 10 9 7 6 7 8 8 8 9 9 11 13 13 15 18 20 19 19 19 19 11 17 25 29
18 16 15 16 15 14 14 14 12 12 10 9 8 8 8 7 7 9 10 10 9 8 8 9 9 10 9 9 9 11 14 14 16 20 21 21 20 21 21 13 19 28 29
17 17 15 16 16 14 13 10 9 8 9 8 7 7 8 7 7 9 11 11 9 8 7 8 7 8 9 9 10 13 14 15 16 20 23 22 21 23 18 12 18 28 34
14 15 14 13 10 9 9 9 9 9 7 6 5 3 3 6 8 8 7 8 8 6 6 6 5 7 8 9 11 14 14 15 18 19 22 19 20 20 15 12 17 26 37

GFSGL_850_spd_024.txt.gz
Wind_Speed
33 32 32 33 36 34 30 28 37 41 43 44 43 45 45 47 46 41 38 34 31 29 26 24 21 18 18 18 19 20 21 21 25 28 26 25 28 29 28 30 33 31 33
29 33 41 33 32 32 30 29 28 34 38 43 44 43 44 47 47 44 39 35 33 30 26 25 23 22 21 19 19 19 19 18 21 27 28 32 28 30 30 34 29 30 31
34 34 33 28 30 28 31 27 29 31 36 41 44 45 44 47 48 44 39 34 32 29 27 25 22 21 19 17 18 17 18 20 24 27 30 29 32 30 33 29 33 30 26
36 37 31 29 30 33 29 27 27 30 32 37 42 43 42 45 48 45 39 33 30 27 26 24 22 20 18 19 18 19 20 22 25 27 31 31 31 30 30 33 36 32 36
38 36 36 35 33 31 31 26 28 31 27 36 40 41 40 45 47 45 40 34 31 27 24 21 20 21 20 20 19 22 24 25 25 26 27 30 29 31 37 38 38 42 47
37 40 39 36 29 32 35 25 23 29 32 29 38 41 39 43 46 44 38 34 30 28 25 25 22 17 15 16 17 15 17 20 22 24 26 30 34 37 36 35 39 49 52
39 41 42 37 31 28 33 35 25 24 29 27 36 38 39 42 42 41 38 33 31 28 26 21 18 17 13 14 17 18 17 18 17 21 27 32 34 35 39 47 46 42 46
37 42 39 33 28 35 35 35 29 27 27 27 35 38 39 40 39 39 38 33 29 27 24 20 16 15 17 18 20 20 20 17 15 19 26 30 34 39 38 42 46 45 41
38 40 33 37 43 40 32 33 33 31 24 28 33 38 39 39 38 39 38 32 28 24 21 18 18 18 17 15 17 17 16 16 18 23 27 30 28 32 37 36 37 36 37
37 35 39 46 46 43 36 32 34 33 28 24 32 37 38 39 37 37 36 33 28 24 19 17 16 14 12 11 13 14 16 17 23 28 26 28 30 35 34 31 33 35 33
37 39 40 42 49 43 37 32 29 31 29 23 31 36 39 38 37 35 34 34 29 22 17 13 10 9 11 11 11 13 14 18 23 21 28 29 34 37 32 31 29 32 34
37 37 41 46 46 42 36 31 28 25 30 24 35 36 39 39 36 34 32 28 22 19 16 14 13 12 12 12 11 12 12 18 17 21 30 28 36 37 31 26 32 27 27
37 38 41 45 47 40 36 31 25 30 34 28 37 39 40 38 33 33 33 29 26 23 20 18 15 13 11 13 11 8 12 14 16 21 26 29 34 36 29 28 33 25 16
42 40 42 44 43 33 30 26 28 33 36 30 36 40 40 37 34 35 34 31 26 22 20 16 14 12 11 6 3 6 11 13 14 21 23 27 32 32 26 29 31 19 13
39 42 41 41 35 26 19 21 27 34 31 32 39 43 42 39 36 35 34 32 25 21 17 12 8 5 3 2 3 7 10 10 14 19 19 27 30 29 25 28 28 15 22
38 39 38 35 27 24 16 16 17 28 29 28 37 42 41 37 31 30 28 22 20 18 12 11 12 9 5 4 6 6 7 9 13 14 18 24 27 28 25 25 21 12 19
39 32 31 30 22 24 18 19 23 21 27 30 36 40 39 33 31 29 25 21 17 14 11 11 10 8 7 8 6 3 7 12 13 11 15 22 23 25 23 22 15 16 14
26 27 24 23 18 18 12 20 25 24 31 37 37 37 34 30 28 26 24 20 18 14 12 12 10 9 8 6 3 3 7 11 11 11 13 19 20 23 23 21 18 13 16
29 20 20 19 19 16 17 22 26 33 38 42 39 35 32 29 27 23 19 15 13 11 10 13 12 9 8 6 3 3 6 8 9 10 12 17 18 20 20 18 15 11 10
13 12 6 2 10 19 33 34 34 37 41 39 38 36 33 30 26 22 16 15 12 9 9 10 11 9 7 5 2 2 3 4 7 8 11 15 16 17 19 17 14 9 10
2 3 15 19 23 25 32 36 38 37 33 30 29 27 26 23 20 16 16 16 16 14 12 9 10 8 6 4 2 2 2 4 7 8 9 12 15 15 16 16 12 6 5
8 16 25 35 32 32 34 33 34 33 31 29 26 23 19 17 17 14 13 14 16 13 12 10 9 7 4 2 1 1 1 2 7 10 9 12 13 14 13 15 12 5 2
16 18 24 26 27 28 29 29 29 28 24 23 24 24 22 19 16 16 14 14 14 13 12 10 9 6 4 2 2 2 3 4 8 10 8 12 13 12 11 13 14 8 4
19 20 21 23 23 23 21 18 17 18 16 15 16 18 15 13 15 15 16 13 10 10 10 8 6 7 4 3 3 4 5 6 8 12 14 13 14 11 10 11 11 10 6
24 22 21 20 19 20 21 21 20 20 20 19 17 17 16 15 15 14 14 12 11 10 8 7 6 6 5 5 5 6 8 9 10 10 17 14 15 12 10 10 11 11 9
22 20 18 17 17 17 17 17 16 15 16 14 12 11 11 11 11 11 11 10 11 11 9 7 6 6 4 4 5 6 7 9 10 11 12 14 14 12 8 11 11 10 11

GFSGL_850_spd_027.txt.gz
Wind_Speed
32 27 31 35 37 38 36 36 35 33 32 29 41 47 48 46 43 44 50 48 46 42 40 36 32 28 27 25 23 21 19 19 24 26 24 20 22 24 27 24 27 28 29
31 35 37 38 34 36 37 37 40 38 35 26 29 45 43 45 43 46 50 49 47 45 41 37 33 28 27 25 23 21 19 20 21 24 23 24 27 29 28 31 30 32 26
36 35 37 39 33 34 38 41 38 39 40 28 24 40 44 43 47 48 49 50 47 45 42 38 33 29 27 24 22 21 19 18 19 22 26 29 31 31 33 30 25 23 24
40 36 40 38 34 37 37 39 36 39 38 35 30 34 46 49 46 46 49 49 47 44 40 36 31 28 25 23 22 19 19 21 22 26 29 31 31 28 27 27 32 30 32
40 41 39 38 40 37 39 36 34 32 38 33 31 28 46 52 47 46 47 47 45 41 37 33 30 26 22 21 20 20 21 23 24 27 27 26 27 28 29 33 36 37 40
38 40 40 39 36 43 34 30 29 39 40 35 30 27 40 52 46 43 41 43 42 40 36 32 28 24 23 20 21 20 19 18 18 20 23 27 29 30 33 36 36 41 48
45 37 37 41 41 37 29 33 38 38 38 37 29 24 35 48 42 42 39 39 40 38 34 31 28 25 22 21 18 16 16 17 19 20 24 24 29 31 34 39 40 38 44
38 38 43 36 36 34 40 41 44 39 41 41 30 18 31 45 41 40 36 36 37 35 32 29 27 24 22 19 19 18 20 21 21 20 20 25 30 33 30 31 39 43 43
38 42 36 36 41 40 41 45 45 36 36 38 27 23 28 43 43 37 37 34 34 34 32 29 26 22 21 20 19 19 20 19 17 18 21 25 26 26 27 34 34 39 42
41 35 41 41 37 41 42 42 43 37 36 35 24 25 23 40 41 37 35 33 36 36 32 28 25 22 20 20 18 15 16 15 17 19 22 23 25 25 28 30 33 36 38
37 40 38 38 37 40 41 40 45 39 34 31 24 22 21 41 40 40 33 33 37 36 33 29 24 20 18 14 11 12 13 14 15 20 23 25 26 28 31 28 33 38 43
36 37 35 36 43 42 40 43 43 32 31 27 23 21 24 42 39 38 31 31 34 34 31 25 20 17 14 10 10 10 12 12 15 19 22 27 28 32 30 30 31 20 16
39 36 37 44 38 42 35 42 37 30 29 22 21 17 30 42 38 35 31 30 30 28 24 22 19 16 12 10 9 10 10 11 14 18 22 25 28 30 29 31 21 18 21
40 39 44 37 36 34 36 39 32 33 29 25 23 19 35 43 40 37 32 30 30 28 25 23 19 14 10 10 8 6 5 9 13 18 21 21 27 28 29 27 22 16 21
37 37 32 31 35 32 36 34 26 23 22 25 33 24 39 44 40 36 33 35 34 31 28 22 18 14 10 9 6 4 7 9 12 17 16 22 27 27 28 25 16 19 18
38 32 32 35 31 33 34 29 19 17 19 21 33 25 38 38 35 33 34 35 32 29 25 20 17 13 9 8 6 5 6 8 13 12 15 21 25 27 27 22 16 16 18
28 29 33 31 27 27 26 25 19 13 15 23 24 26 37 35 31 30 36 34 29 26 22 19 14 11 10 8 5 4 3 8 10 11 12 20 22 24 25 21 16 15 18
28 28 29 25 27 25 21 20 14 18 21 17 23 28 33 28 30 28 33 31 27 21 19 16 15 14 11 8 6 1 4 8 9 9 11 17 20 22 23 20 17 17 13
27 24 23 23 24 22 18 11 16 19 21 32 32 28 25 27 29 28 30 29 26 22 17 16 15 13 10 9 5 3 6 7 6 8 9 15 17 19 21 18 16 11 13
19 14 15 12 7 7 10 19 28 33 36 38 35 34 33 33 32 32 28 22 18 18 18 17 15 12 11 9 5 4 6 4 5 7 9 11 14 16 18 17 15 10 11
7 5 7 12 19 26 28 32 36 39 40 37 37 37 35 34 33 28 24 21 20 19 17 16 16 13 10 8 6 5 4 3 4 8 11 9 10 13 13 14 12 8 8
12 17 17 20 31 32 33 35 37 38 35 34 32 30 27 25 24 23 21 19 17 14 12 14 14 10 8 8 7 5 3 1 4 7 10 10 9 9 10 11 10 6 5
14 25 28 29 25 25 29 31 35 36 32 27 23 21 19 19 20 21 20 19 17 17 16 15 13 11 9 7 4 4 2 1 5 7 10 14 13 8 8 8 7 5 1
16 18 23 25 28 26 26 27 26 26 26 24 20 18 18 18 19 19 19 18 16 16 14 14 12 11 8 7 5 4 2 1 5 8 9 13 14 9 6 6 5 4 3
21 20 23 23 24 23 23 23 23 23 25 25 23 21 19 20 20 19 19 16 13 14 13 12 11 10 7 5 5 3 3 4 6 9 9 12 11 10 6 5 5 2 3
22 22 21 21 22 23 23 23 23 22 22 21 19 19 19 18 18 17 15 13 13 14 13 10 8 9 8 7 6 5 5 4 4 8 8 10 11 9 6 5 6 5 3

GFSGL_850_spd_030.txt.gz
Wind_Speed
28 28 32 36 37 36 37 34 30 34 38 36 37 32 28 28 40 50 54 54 47 41 44 41 42 40 37 35 34 31 29 27 27 24 22 19 21 20 21 23 24 25 28
24 31 37 34 30 35 35 31 31 35 36 38 34 33 31 26 34 47 53 54 49 44 44 42 43 40 38 35 34 32 29 26 24 24 23 22 22 22 24 27 28 29 28
35 35 33 36 34 34 33 33 33 34 37 35 32 30 33 30 30 42 48 51 50 43 44 43 43 41 39 37 35 33 29 25 23 25 25 24 24 25 28 29 27 24 21
33 34 36 37 37 37 33 31 36 38 33 37 34 35 37 32 36 39 43 42 50 43 45 43 42 41 40 36 35 32 27 25 25 25 25 26 27 28 28 27 28 26 26
35 35 38 36 37 33 28 38 35 29 28 32 37 39 41 38 40 35 43 43 53 47 46 43 40 39 36 33 32 29 27 26 25 23 25 27 28 25 25 26 30 31 31
41 41 37 41 36 37 38 32 28 30 35 39 42 42 43 45 37 37 41 51 48 49 46 41 38 36 33 31 29 26 26 24 23 23 24 24 25 26 25 28 32 35 43
42 45 38 40 34 36 31 31 37 39 41 44 42 39 41 45 37 36 42 50 46 49 44 39 36 35 32 30 28 26 24 21 20 19 23 25 27 25 28 32 34 35 39
42 42 39 38 39 31 36 40 35 37 42 42 39 37 41 44 31 34 37 41 44 48 40 35 35 35 32 29 26 24 24 22 21 23 25 25 25 26 28 30 35 39 43
41 41 38 38 38 35 39 39 34 40 46 41 40 37 40 41 27 26 33 34 43 45 36 33 33 30 28 27 26 25 21 21 21 21 21 21 24 25 26 30 37 39 44
41 36 38 38 34 34 39 33 38 45 44 39 40 32 36 34 27 24 30 39 42 39 33 32 30 28 26 26 23 20 19 18 18 17 18 21 21 24 24 27 33 36 40
38 38 37 33 34 36 34 39 46 44 39 39 35 27 33 26 23 26 33 41 35 35 35 34 30 27 25 22 18 16 15 13 13 14 18 21 23 23 24 27 29 31 35
40 36 35 40 38 39 42 49 40 36 37 40 30 26 25 22 20 28 40 32 30 35 38 34 30 26 22 18 16 13 10 9 10 13 18 21 23 24 26 27 25 26 22
36 41 40 36 41 43 43 31 33 33 35 33 28 25 19 16 27 31 28 28 33 37 33 29 26 23 19 16 12 9 8 8 9 13 17 20 21 25 24 25 23 15 13
38 34 35 40 40 37 29 30 32 32 36 27 27 22 14 18 25 31 26 32 33 32 28 26 23 20 16 12 10 8 6 7 9 12 16 16 20 22 21 20 19 15 21
32 35 32 33 35 30 31 29 28 32 28 25 23 19 17 24 31 30 33 37 33 32 31 27 24 21 17 11 8 7 6 6 8 11 12 17 20 21 20 19 15 18 24
29 26 27 27 27 31 32 28 30 28 21 19 17 15 18 26 31 31 35 32 32 30 28 26 22 17 12 10 9 7 3 4 6 7 10 17 19 21 19 18 14 19 27
26 27 28 27 29 30 25 27 30 21 11 10 15 20 25 29 29 30 30 30 28 28 24 21 17 14 13 11 9 4 1 5 7 8 10 16 17 18 18 20 16 20 24
22 23 25 27 27 23 24 26 23 22 15 14 17 19 30 28 30 27 29 32 31 24 19 15 15 15 13 11 7 5 5 6 6 7 8 14 16 19 18 19 19 18 21
21 23 23 24 22 22 23 22 18 13 10 15 20 26 25 27 26 27 31 30 28 22 17 15 14 14 13 10 8 8 6 6 7 6 8 12 16 17 17 17 16 18 19
14 15 16 18 17 13 9 9 5 11 19 27 27 30 30 30 32 34 31 25 22 20 18 16 15 14 11 10 8 8 6 5 6 8 9 10 14 15 16 16 17 20 16
12 12 8 6 6 10 15 17 17 30 31 25 32 29 25 28 31 30 26 22 20 17 18 16 16 13 12 10 9 8 6 5 7 10 12 11 12 13 13 15 14 15 16
12 14 15 15 17 22 26 31 35 35 34 36 33 28 23 26 26 26 21 17 17 17 16 15 14 11 10 9 9 6 4 4 6 9 11 13 10 9 10 11 12 12 12
13 16 15 19 20 25 28 31 34 32 29 27 26 23 23 24 22 20 19 20 20 18 16 14 13 11 11 10 8 6 3 3 4 7 10 12 11 8 7 7 9 9 10
15 18 20 20 17 21 27 30 27 26 27 25 23 21 21 20 20 18 19 19 17 17 16 15 12 10 10 9 7 5 5 5 7 8 9 12 12 7 5 4 4 6 6
19 17 19 20 22 23 24 25 25 24 23 23 24 22 20 20 18 16 16 16 16 16 16 14 11 11 8 7 7 5 2 4 5 7 10 9 10 7 5 4 2 2 3
19 19 19 19 19 19 18 18 20 21 22 21 19 17 15 14 15 15 14 13 13 14 13 13 11 8 7 6 6 3 1 1 3 6 7 10 10 8 5 3 4 4 3

GFSGL_850_spd_033.txt.gz
Wind_Speed
34 32 31 35 37 35 36 35 36 31 27 29 26 28 30 27 25 25 26 30 37 40 41 47 47 46 43 41 40 37 35 32 32 30 26 21 23 23 23 23 24 24 26
36 32 35 34 32 31 34 32 31 29 30 27 32 32 30 29 28 25 26 26 33 39 42 44 45 47 44 40 40 39 36 33 31 30 27 27 26 24 24 25 25 27 29
41 36 33 31 30 30 29 33 29 29 30 33 33 32 28 29 29 30 27 29 32 37 38 44 41 47 43 40 40 38 35 32 31 30 28 26 25 25 25 27 28 29 28
40 37 33 33 33 33 30 33 28 31 35 33 27 26 27 31 33 34 32 29 34 37 36 43 39 45 43 40 40 38 35 32 31 30 29 27 27 25 27 29 30 28 29
42 37 38 39 39 38 34 33 30 30 27 23 28 33 36 38 39 38 37 35 31 38 42 39 44 42 41 37 38 38 34 32 30 30 29 28 28 28 28 27 30 31 31
45 42 40 43 43 41 36 33 33 31 28 35 36 36 39 40 40 36 34 37 34 37 44 40 40 40 38 37 34 33 31 30 30 29 28 29 29 27 26 27 30 32 36
46 45 43 42 41 41 36 37 34 32 35 39 33 37 40 43 38 34 32 35 38 38 44 40 49 42 36 36 34 31 29 27 26 24 28 27 26 25 27 29 31 34 37
43 46 41 41 40 41 36 36 35 34 36 39 34 39 45 42 38 34 32 34 35 41 40 47 44 37 35 35 33 31 29 26 24 26 24 22 26 27 28 30 33 36 39
44 43 41 40 39 38 36 36 33 34 37 35 39 46 44 41 40 33 32 40 35 38 42 47 36 32 33 34 33 29 24 23 21 21 24 27 28 27 26 30 35 36 43
42 42 40 39 36 37 39 36 32 35 36 41 47 43 40 42 39 31 31 31 29 35 39 39 35 31 33 33 31 26 23 20 22 23 25 25 25 25 26 29 30 36 41
43 41 41 33 35 36 30 34 35 36 41 45 39 38 38 40 35 31 32 24 32 33 33 34 31 31 32 30 25 21 17 18 20 20 20 21 21 23 25 24 27 32 35
45 43 39 36 36 33 38 34 35 41 40 32 33 38 41 32 32 29 18 20 24 29 23 24 26 30 30 25 21 18 17 16 16 15 16 17 20 20 22 23 26 23 22
36 37 35 30 34 33 29 35 38 36 29 29 30 37 38 34 31 16 16 21 23 19 18 19 29 29 25 21 17 14 14 12 11 11 14 15 15 19 21 22 16 9 11
36 32 29 28 27 29 28 30 31 29 29 28 31 38 30 29 17 14 18 26 18 19 17 29 30 28 21 17 17 14 10 8 6 9 11 12 13 15 17 13 11 8 8
27 25 24 24 22 24 25 25 26 27 25 31 33 30 28 27 15 16 29 24 29 25 30 35 31 27 22 18 14 9 7 4 5 6 7 10 13 16 14 13 10 6 11
26 24 24 22 22 26 25 27 23 21 25 29 28 27 27 15 14 25 20 25 21 25 37 33 28 24 20 15 12 10 6 3 2 3 6 11 15 15 18 16 10 10 13
25 24 24 23 25 24 24 26 25 22 28 23 19 15 10 11 19 20 26 18 21 35 29 27 26 21 15 13 12 8 7 5 4 5 9 12 14 15 20 19 14 13 16
20 22 24 24 24 24 23 20 21 25 25 11 4 8 18 26 25 24 22 22 33 23 26 26 21 16 15 14 12 10 8 6 6 6 8 13 15 18 21 19 17 18 19
22 21 20 20 20 19 17 17 18 17 8 7 8 21 20 23 19 21 23 30 26 28 24 18 15 15 16 14 13 11 9 9 7 7 9 13 16 20 21 21 19 21 20
25 25 20 17 14 9 9 8 7 2 10 7 18 25 33 25 29 22 25 24 27 24 20 15 17 17 15 13 13 10 10 9 9 9 11 13 16 20 20 22 21 20 21
24 24 18 14 11 9 8 10 11 11 15 16 24 31 27 24 24 23 27 25 23 21 17 19 19 16 14 13 12 11 10 10 11 12 12 13 15 18 20 20 21 19 22
21 20 18 16 19 22 22 23 24 30 33 32 29 25 23 21 24 24 23 22 18 15 17 18 17 14 12 11 11 10 9 9 10 12 13 13 13 15 17 18 20 19 17
21 18 18 17 23 24 27 29 27 28 28 26 26 26 22 24 24 23 21 22 20 19 18 16 16 15 14 12 10 9 8 8 10 11 12 12 11 12 14 17 18 17 16
21 18 16 17 21 23 23 23 24 26 28 28 28 28 24 21 23 25 24 23 20 20 17 15 15 15 13 11 10 9 10 11 10 11 12 12 10 11 11 14 16 16 14
24 21 20 18 18 22 24 27 29 30 28 26 25 26 28 26 23 20 19 19 20 20 17 15 12 11 10 11 12 10 9 9 10 12 12 13 12 11 11 10 12 13 13
20 20 20 19 18 19 21 22 23 24 27 28 28 26 22 21 22 20 18 19 19 17 14 10 8 12 12 11 9 7 6 7 7 10 11 14 15 14 11 10 9 9 11

GFSGL_850_spd_036.txt.gz
Wind_Speed
40 42 41 46 45 42 42 36 31 32 30 28 23 21 22 23 24 25 26 26 26 30 28 31 34 34 37 38 40 43 41 37 36 35 31 25 22 22 23 24 25 26 25
49 48 48 45 46 41 37 36 31 31 30 27 24 24 26 27 25 23 25 27 27 27 30 30 32 33 36 34 36 40 42 39 36 35 32 30 27 25 25 26 27 27 27
43 43 49 45 42 37 34 32 32 32 33 30 30 32 30 26 22 22 23 28 30 29 28 31 34 33 34 36 32 35 40 41 36 34 32 29 27 27 27 27 28 28 29
42 49 44 48 45 39 37 38 34 32 34 32 32 29 23 20 24 28 29 31 34 35 33 31 34 35 34 35 34 31 37 42 39 35 33 30 29 28 27 28 29 28 29
44 42 42 45 45 44 39 40 42 39 34 31 33 29 29 31 32 35 34 33 36 38 35 32 31 35 36 32 33 35 35 42 41 37 34 33 31 29 28 26 28 28 29
45 45 44 42 44 44 39 42 40 36 33 32 33 32 35 35 31 33 32 35 36 37 38 34 32 34 35 34 36 32 33 41 42 38 35 34 32 28 24 24 26 27 31
43 44 43 42 42 41 42 39 40 38 32 32 32 32 36 36 30 34 33 32 33 36 37 37 32 35 34 33 33 28 28 33 39 32 33 30 28 25 22 23 25 28 31
45 44 43 42 41 40 39 38 38 37 32 31 32 33 36 36 37 37 31 31 36 38 39 40 34 35 34 33 29 29 31 31 36 31 28 23 24 23 22 22 25 28 32
45 45 45 42 40 38 38 36 37 30 32 35 30 33 37 43 41 38 30 31 36 37 40 42 33 37 35 35 28 35 31 30 31 27 24 22 23 21 21 23 25 27 35
45 49 42 44 42 37 38 35 32 29 31 29 33 36 41 46 40 33 29 34 39 38 40 40 31 38 34 29 28 34 32 32 31 28 23 21 20 21 22 23 25 30 34
44 45 44 38 33 36 32 32 30 27 29 30 35 40 42 38 35 29 30 32 34 40 40 32 34 32 27 30 31 33 31 28 26 21 19 18 21 21 21 22 25 29 35
45 41 38 35 31 30 27 27 28 29 28 34 38 39 34 29 29 34 29 31 33 37 32 33 33 29 23 26 33 31 25 23 21 20 16 17 17 16 17 19 22 26 25
44 39 35 31 28 26 24 22 24 27 29 32 31 31 31 27 35 29 29 29 23 30 32 30 27 29 28 33 32 28 25 22 19 14 11 11 10 12 13 16 16 7 4
44 39 32 28 25 24 22 20 22 25 27 27 29 30 26 31 35 25 24 17 22 17 21 24 34 35 30 32 30 24 19 15 11 9 6 5 5 7 10 8 3 3 4
45 35 29 25 25 25 22 21 22 22 25 29 28 28 31 34 33 25 12 18 18 30 35 39 40 36 33 28 23 19 14 11 8 5 2 1 4 5 1 3 2 9 8
39 32 25 25 26 24 25 26 21 22 23 22 24 27 31 27 24 14 22 28 37 36 42 38 35 32 29 25 20 17 13 9 7 5 5 5 3 2 8 7 10 11 12
39 30 27 26 27 27 25 24 25 19 17 22 24 20 16 14 6 26 33 35 35 36 38 36 32 28 24 20 17 14 13 10 8 9 7 6 6 7 10 12 13 12 14
37 32 29 28 25 23 21 18 16 18 22 21 6 4 2 20 31 32 33 35 33 31 31 29 27 23 21 20 17 15 13 11 10 9 9 10 8 10 13 17 15 16 16
38 34 32 27 21 16 15 14 13 13 14 8 7 18 31 32 32 31 29 30 31 29 27 24 21 23 22 19 18 16 13 12 12 10 13 12 11 11 13 17 15 15 16
37 32 30 26 21 16 9 5 3 3 7 7 17 25 29 30 28 24 25 23 26 24 21 24 24 20 19 19 17 16 15 14 13 13 14 14 15 15 17 19 20 18 18
32 29 25 22 22 19 12 13 12 10 13 17 23 28 27 27 26 25 26 26 23 22 21 23 21 19 18 18 16 16 16 15 15 14 14 15 16 18 19 19 19 20 19
29 25 23 23 21 22 21 22 27 32 32 30 28 27 27 28 28 28 24 24 20 21 22 22 20 19 17 16 14 14 15 15 15 15 14 15 16 20 21 20 19 19 22
29 24 22 22 24 21 23 27 25 28 28 28 26 31 30 28 26 23 25 23 22 22 20 20 21 21 18 16 14 13 14 15 15 14 13 13 15 18 22 23 21 19 18
28 26 23 21 23 25 26 28 26 26 28 30 30 32 29 26 23 24 21 25 22 20 19 19 19 19 17 15 14 15 15 16 14 14 12 13 16 17 20 22 23 20 17
26 27 23 22 22 22 26 29 31 29 29 32 32 33 32 29 27 23 23 21 22 21 20 18 18 18 15 16 16 15 14 15 15 15 14 15 16 17 19 21 22 21 20
25 24 24 21 20 20 22 23 26 28 29 29 28 26 24 23 22 22 21 20 20 18 17 16 16 16 16 14 13 12 11 13 15 18 19 18 17 16 17 18 20 21 20

GFSGL_850_spd_042.txt.gz
Wind_Speed
32 32 32 33 33 33 34 34 32 35 36 34 34 32 31 31 29 27 28 30 29 28 26 26 24 21 21 22 21 21 25 27 37 33 28 22 21 25 29 30 31 32 32
32 33 34 34 34 35 35 35 35 35 34 33 33 31 30 30 29 27 27 28 29 29 28 27 26 23 21 20 22 23 22 23 30 35 29 28 24 27 30 28 30 31 30
31 32 33 33 33 35 35 34 34 34 34 35 34 33 32 30 29 28 28 28 30 31 30 29 28 25 24 22 21 23 24 22 24 28 36 32 24 22 28 30 29 29 27
30 32 33 34 34 35 35 35 35 34 34 34 34 33 34 32 31 30 28 28 27 26 27 27 29 28 27 25 24 24 25 24 22 27 27 36 25 22 26 31 30 28 27
32 33 35 36 36 37 37 35 35 34 34 34 36 36 34 32 29 31 30 28 26 27 27 29 31 31 30 29 26 24 25 26 25 24 28 31 29 25 30 28 30 29 27
33 34 37 40 40 40 40 38 37 36 34 35 36 35 34 34 31 28 29 29 26 27 29 28 29 30 31 31 31 30 29 30 27 27 30 29 37 28 29 26 28 25 23
37 37 40 37 38 43 45 39 37 36 34 33 33 33 34 32 30 29 31 31 28 29 29 29 29 29 28 27 27 28 31 33 35 28 32 33 37 34 31 31 30 28 25
40 39 40 40 45 47 46 46 38 42 31 31 30 30 31 31 27 27 27 29 29 30 30 29 31 31 28 27 27 28 25 27 33 37 35 31 34 35 35 34 32 26 21
40 38 44 43 49 48 46 50 40 29 31 26 28 28 28 28 26 28 27 26 28 30 31 31 32 32 28 28 29 29 29 26 25 33 38 37 31 29 30 31 25 22 21
37 45 45 47 43 46 46 37 35 30 30 31 26 26 26 27 24 25 27 26 28 31 31 32 31 30 29 29 30 30 30 27 25 26 29 32 27 32 30 28 28 24 20
43 46 46 43 43 43 36 32 28 28 24 23 23 22 24 23 23 25 26 26 30 31 32 31 28 28 29 29 30 30 31 25 27 27 27 32 25 29 31 31 23 22 21
44 45 42 40 42 39 31 28 24 23 23 21 21 23 24 24 25 26 29 31 31 32 32 29 28 28 26 26 25 32 30 26 30 33 29 22 23 28 25 27 25 25 25
44 45 41 41 39 37 34 31 24 22 22 22 22 22 23 21 22 24 25 26 27 29 33 33 33 32 30 27 27 31 30 30 36 32 28 25 24 21 21 19 20 23 23
45 42 44 43 39 36 35 30 26 24 23 22 22 23 24 23 23 22 23 23 25 27 32 36 36 34 31 29 32 30 32 39 31 29 26 20 20 20 19 18 20 21 18
42 44 43 42 40 37 34 34 26 22 21 24 26 29 34 34 33 29 27 28 23 26 27 31 34 35 33 27 27 34 35 28 28 24 19 20 19 19 16 18 19 17 15
43 44 43 40 39 39 36 31 24 19 19 20 24 26 31 34 37 34 32 28 31 25 21 8 21 21 25 37 34 29 26 24 22 18 17 17 16 16 19 18 17 20 15
41 39 39 38 37 35 32 27 24 22 18 17 17 14 11 12 6 4 11 9 14 20 25 32 35 37 35 31 27 27 22 20 20 18 15 15 19 19 17 18 21 22 14
38 36 36 34 31 27 27 21 17 19 25 26 13 14 22 23 29 29 32 36 38 37 37 37 36 33 28 23 19 18 18 16 12 12 16 17 16 16 21 24 22 20 16
37 36 33 29 25 21 18 18 19 23 25 26 22 24 23 29 30 31 32 35 34 33 31 29 24 21 18 16 16 13 10 10 11 11 11 12 15 21 24 25 21 19 16
35 34 30 26 25 20 17 17 19 21 22 24 27 24 23 27 30 29 30 31 31 29 27 24 21 19 17 16 14 12 12 9 7 6 7 12 19 23 28 21 19 20 15
32 32 29 25 23 23 20 20 24 24 25 25 23 21 22 30 31 28 27 28 28 29 27 24 20 18 19 17 14 12 12 10 8 7 9 13 19 26 27 20 21 21 18
28 28 27 24 22 20 21 21 22 24 24 27 27 26 25 28 29 30 28 29 29 27 24 21 22 22 18 16 13 13 13 12 11 9 12 15 21 27 25 22 22 19 19
27 26 25 21 20 19 18 20 22 23 26 26 26 24 22 26 25 25 29 28 26 23 19 19 19 18 17 16 14 13 13 11 14 11 13 16 23 26 23 23 23 21 22
24 23 22 21 19 19 19 21 21 22 24 23 22 22 22 22 24 26 27 25 23 22 19 17 17 18 18 18 16 14 12 13 14 15 14 16 20 23 22 22 23 22 26
22 23 20 20 18 19 20 19 21 21 20 20 20 21 23 23 23 24 24 23 22 21 19 17 18 19 21 20 20 19 13 15 13 16 16 17 17 20 22 23 23 23 25
18 20 20 16 18 16 16 16 16 16 17 19 21 22 23 25 24 22 21 20 20 20 19 18 16 15 17 19 21 20 18 14 15 16 16 16 18 20 23 24 23 23 23

GFSGL_850_spd_045.txt.gz
Wind_Speed
29 29 30 31 31 32 33 35 36 38 38 39 39 40 39 37 35 36 39 36 34 33 33 32 31 28 26 25 23 24 26 26 30 26 27 39 13 21 22 24 27 28 28
29 30 30 30 31 31 32 32 33 35 37 39 39 38 38 38 36 36 38 36 35 33 33 34 31 28 28 26 25 25 24 25 24 25 24 28 33 21 20 23 24 26 28
29 30 30 31 31 32 34 35 35 36 37 38 39 39 39 39 38 37 36 35 34 35 33 31 30 29 29 26 24 24 25 26 24 23 25 20 25 25 21 21 25 23 26
30 30 32 32 33 35 36 39 40 38 41 41 39 40 39 39 37 36 36 36 34 34 35 32 31 31 33 26 24 24 24 24 26 24 21 23 21 30 23 24 25 26 28
30 31 33 34 37 38 42 40 38 41 41 42 41 39 39 38 38 36 35 38 38 35 32 33 32 32 28 23 23 23 23 23 23 27 27 22 24 23 31 27 25 25 30
31 32 34 38 40 43 42 39 45 48 44 40 38 38 37 38 39 37 37 36 37 37 41 40 34 30 26 25 28 27 30 26 20 27 27 29 26 26 29 29 31 26 25
31 35 41 40 42 41 47 43 47 45 46 45 46 35 38 39 35 35 35 35 37 35 35 43 33 27 26 25 23 24 26 28 31 29 28 30 27 25 27 31 31 35 28
35 38 41 38 43 45 46 48 46 44 44 44 37 33 32 37 32 32 31 34 35 37 38 32 24 26 25 21 20 22 24 25 26 31 35 33 29 26 25 28 33 32 27
38 40 41 41 44 48 48 45 47 43 39 37 33 29 27 29 27 27 27 30 32 33 33 35 29 28 26 23 23 27 28 31 28 28 27 35 37 32 24 29 27 26 29
38 44 43 44 47 46 45 44 44 39 36 34 30 28 30 29 27 29 27 28 28 30 28 28 30 30 26 23 26 29 31 35 30 29 27 30 31 36 31 31 32 35 26
41 45 46 46 45 45 44 41 40 39 34 28 27 26 25 24 25 23 22 24 26 26 26 26 27 26 24 28 30 33 35 29 29 26 29 28 26 33 28 30 36 33 30
45 45 46 43 43 45 43 42 40 38 31 27 28 25 25 21 21 24 26 27 27 26 26 25 25 25 24 25 28 31 31 29 28 29 27 30 30 31 32 27 36 32 27
45 43 44 45 45 42 43 40 36 35 33 27 28 27 26 23 25 23 25 27 28 30 32 32 29 28 25 26 26 26 25 26 30 31 29 30 27 26 34 25 30 30 26
41 44 44 45 43 41 40 38 37 34 34 27 26 26 27 25 25 26 24 26 25 28 27 27 27 27 29 30 30 28 27 28 29 30 29 30 25 24 26 28 27 26 31
40 45 44 43 41 42 37 35 33 26 25 27 29 31 32 34 36 32 29 29 28 26 26 25 29 31 32 35 33 31 28 29 30 33 30 25 29 29 24 22 24 28 33
42 45 42 39 40 37 35 34 31 25 22 21 23 24 28 33 40 39 35 34 31 27 27 24 28 32 34 35 34 30 31 28 30 33 32 27 29 24 22 22 28 30 24
41 41 38 39 36 33 29 29 29 27 33 23 15 15 14 18 21 15 1 16 27 27 24 21 13 15 19 23 26 27 30 32 33 31 29 20 18 19 24 30 28 23 22
39 36 36 35 30 26 22 21 18 20 24 23 25 21 24 27 26 26 24 28 35 29 29 28 28 27 27 28 27 23 21 22 21 16 16 19 23 27 28 26 25 27 21
35 35 33 30 24 20 19 16 15 19 23 24 24 25 26 29 34 36 38 40 38 34 31 28 25 23 20 19 17 16 14 12 13 15 18 19 19 21 23 22 26 22 20
33 32 30 27 22 19 18 18 19 21 23 23 24 25 26 28 31 31 30 30 30 27 25 24 21 19 16 13 11 10 7 6 7 10 13 16 18 21 24 25 25 22 19
30 30 28 25 20 18 17 18 16 19 21 22 23 20 19 26 26 27 27 27 27 26 24 23 21 19 17 14 13 10 7 5 6 10 12 15 19 23 24 23 24 21 21
27 26 27 24 18 17 14 14 15 18 20 19 17 17 20 25 26 25 26 27 26 26 25 24 21 18 16 13 11 12 9 4 6 8 10 15 21 30 22 25 23 21 24
25 24 25 23 18 14 15 15 15 15 16 18 19 20 22 24 24 24 25 25 24 23 22 22 21 21 16 11 11 9 13 11 7 7 13 18 30 25 24 24 24 23 26
22 21 23 21 19 15 13 12 13 14 17 18 18 21 21 20 21 21 23 25 23 21 21 26 25 24 23 18 14 11 14 15 10 10 15 24 29 25 24 25 25 24 26
19 20 18 20 18 18 16 14 13 14 17 18 19 20 19 17 18 21 21 22 21 20 21 23 24 24 24 23 17 12 13 16 13 13 18 23 24 23 24 24 25 27 25
15 17 18 19 17 16 16 15 15 14 16 17 19 18 18 17 17 19 21 21 21 20 20 22 24 25 22 21 20 14 12 19 17 15 18 20 22 22 21 22 25 25 24

GFSGL_850_spd_051.txt.gz
Wind_Speed
35 38 38 39 41 41 35 34 35 35 36 35 39 44 47 49 45 43 41 44 41 37 33 34 36 37 38 39 39 39 39 38 43 37 35 30 26 24 21 37 33 36 38
38 38 40 41 39 38 38 40 40 39 42 47 47 42 39 39 38 38 41 41 38 36 38 36 35 34 37 36 36 38 39 37 33 38 32 28 27 18 20 22 33 35 35
39 40 39 38 38 41 39 37 42 45 39 37 39 40 43 39 40 40 41 41 39 37 35 36 34 34 33 33 37 37 32 28 34 35 25 21 24 22 23 21 25 32 29
37 35 34 36 39 37 42 46 41 40 40 38 40 42 43 41 41 43 43 43 40 38 37 34 33 35 33 38 30 36 30 38 35 33 30 26 24 23 21 24 26 24 28
34 35 38 41 40 43 38 37 40 40 40 41 42 43 42 43 41 42 38 41 43 37 33 32 37 35 33 30 33 27 31 28 32 29 35 30 29 27 24 21 20 24 24
34 39 37 39 42 41 40 40 45 43 44 40 42 41 42 41 39 37 37 36 38 43 37 36 33 32 39 30 35 32 29 32 36 33 32 26 30 28 23 21 19 19 24
36 36 37 41 42 39 39 45 45 43 44 44 42 42 42 40 36 36 34 34 33 30 31 32 29 30 28 26 30 26 23 21 21 19 33 26 27 22 18 18 15 21 18
35 38 39 42 42 41 43 44 44 44 43 43 44 39 41 42 36 34 30 29 28 27 28 24 28 28 26 28 27 26 27 26 29 33 30 33 24 21 19 17 13 14 21
35 39 42 42 41 45 46 46 47 47 47 45 45 46 43 44 36 33 26 25 24 25 23 22 22 26 27 23 23 25 27 28 20 31 28 25 28 29 24 19 18 15 20
40 39 40 40 43 45 46 47 48 47 48 47 48 43 38 36 33 29 24 23 24 23 21 19 18 19 20 20 22 26 27 28 30 27 24 20 20 24 26 31 25 24 24
37 38 42 42 43 44 46 46 47 44 45 43 39 36 32 28 28 26 22 22 22 22 18 16 18 15 18 19 19 18 19 24 23 21 23 23 24 27 27 23 25 28 28
37 41 43 43 42 43 44 45 40 38 36 39 45 45 40 30 24 22 20 21 20 20 19 14 12 11 14 14 17 20 15 18 19 18 19 21 20 23 24 31 26 27 32
38 41 41 43 43 42 41 37 36 32 32 41 37 35 32 31 30 26 20 21 21 20 19 15 13 10 10 8 12 17 17 16 16 17 19 17 18 18 19 29 25 24 25
38 41 41 43 41 39 36 33 30 29 30 33 32 33 32 32 31 28 26 19 21 20 18 17 15 14 14 15 14 13 12 14 17 19 19 19 17 18 18 22 21 22 24
36 38 41 41 40 38 32 29 27 26 27 25 29 32 34 34 34 30 27 27 20 21 18 17 17 17 18 19 21 21 22 22 21 19 19 19 18 18 19 18 18 20 21
36 37 39 38 37 33 30 28 24 23 20 20 25 28 32 33 35 31 12 16 20 20 16 18 16 17 20 21 20 20 20 22 23 21 20 19 19 19 21 21 20 23 24
35 35 35 36 34 30 26 26 29 25 21 22 23 26 29 32 32 31 31 26 20 15 11 10 12 15 18 17 21 23 22 19 19 21 21 21 21 20 20 19 21 22 27
34 31 32 33 30 27 23 23 22 21 24 27 26 25 27 28 30 19 14 12 10 8 9 7 6 11 18 19 21 24 24 25 27 25 23 21 22 24 21 22 24 27 29
33 30 29 29 26 25 22 22 21 21 21 22 25 24 25 25 28 29 29 29 25 19 13 10 8 7 9 10 14 15 18 23 26 27 29 28 28 28 26 28 29 30 29
31 26 26 27 25 24 23 22 22 20 20 21 26 22 22 26 29 28 27 25 23 20 17 15 13 11 9 7 11 16 17 18 20 20 22 24 26 25 31 31 27 24 20
26 25 23 25 24 23 23 21 20 19 19 20 22 20 21 24 26 26 25 23 22 18 15 12 11 11 9 7 7 7 10 14 19 25 27 27 26 24 22 21 24 20 18
23 24 23 22 23 22 20 19 18 18 18 19 19 18 20 24 24 23 21 21 20 20 17 14 12 12 12 11 7 3 10 12 15 16 17 20 20 19 18 20 22 23 23
21 21 22 21 22 20 19 18 18 19 19 19 18 20 22 23 24 23 23 21 20 19 18 19 16 13 12 11 10 4 5 13 17 18 18 17 17 20 19 25 20 21 26
19 18 20 21 20 18 17 17 18 19 20 19 19 21 22 22 22 22 22 21 20 17 17 17 17 15 14 15 14 9 4 12 22 20 17 16 19 22 18 19 25 25 25
17 17 18 19 20 18 16 16 17 20 21 18 19 20 22 21 21 22 22 23 22 19 20 19 17 18 18 19 17 13 10 13 19 21 20 21 16 23 26 24 24 24 25
16 15 15 17 18 17 17 16 15 17 20 19 18 19 19 21 20 21 23 25 24 20 21 21 20 20 23 23 19 14 15 23 27 22 24 24 24 24 23 24 25 25 23